Weather History for Buckhannon, WV

Change the Weather History Date:

Tuesday, April 2, 2013

  Actual Average (KEKN) Record (KEKN)
Temperature  
Mean Temperature 34 °F 46 °F  
Max Temperature 41 °F 58 °F 89 °F (2010)
Min Temperature 28 °F 33 °F 14 °F (1907)
Degree Days  
Heating Degree Days 30 20  
Month to date heating degree days 40  
Since 1 July heating degree days 5141  
Cooling Degree Days 0 0  
Month to date cooling degree days 0  
Year to date cooling degree days 0  
Moisture  
Dew Point 13 °F    
Average Humidity 44    
Maximum Humidity 59    
Minimum Humidity 28    
Precipitation  
Precipitation 0.00 in 0.13 in 0.63 in (1964)
Month to date precipitation 0.26  
Year to date precipitation 10.55  
Snow  
Snow 0.00 in - - ()
Month to date snowfall  
Since 1 September snowfall  
Snow Depth -    
Sea Level Pressure  
Sea Level Pressure 30.12 in    
Wind  
Wind Speed 6 mph (West)    
Max Wind Speed 15 mph    
Max Gust Speed 91 mph    
Visibility 10 miles    
Events      
T = Trace of Precipitation, MM = Missing Value Source: NWS Daily Summary

Daily Weather History Graph

Daily Weather History Graph

Search for Another Location

Airport:

Trip Planner

Search our weather history database for the weather conditions in past years. The results will help you decide how hot, cold, wet, or windy it might be!

Date:

Astronomy

Apr. 02, 2013 Rise Set
Actual Time 7:03 AM EDT 7:45 PM EDT
Civil Twilight 6:36 AM EDT 8:12 PM EDT
Nautical Twilight 6:05 AM EDT 8:44 PM EDT
Astronomical Twilight 5:32 AM EDT 9:17 PM EDT
Moon 1:47 AM EDT (4/2) 11:55 AM EDT (4/2)
Length of Visible Light 13h 36m
Length of Day
12h 42m
Waning Gibbous, 56% of the Moon is Illuminated
Apr 2
Waning Gibbous
Apr 3
Last Quarter
Apr 10
New
Apr 18
First Quarter
Apr 25
Full

Hourly Weather History & Observations

Time (EDT) Temp. Windchill Dew Point Humidity Pressure Visibility Wind Dir Wind Speed Gust Speed Precip Events Conditions
12:15 AM 32.0 °F 26.4 °F 15.8 °F 51% 30.03 in 10.0 mi West 5.8 mph - N/A   Partly Cloudy
12:35 AM 32.0 °F 25.6 °F 15.8 °F 51% 30.03 in 10.0 mi West 6.9 mph - N/A   Clear
12:55 AM 32.0 °F 25.6 °F 15.8 °F 51% 30.04 in 10.0 mi West 6.9 mph - N/A   Partly Cloudy
1:15 AM 32.0 °F 26.4 °F 15.8 °F 51% 30.04 in 10.0 mi West 5.8 mph - N/A   Clear
1:35 AM 32.0 °F - 15.8 °F 51% 30.04 in 10.0 mi Calm Calm - N/A   Partly Cloudy
1:55 AM 32.0 °F - 15.8 °F 51% 30.04 in 10.0 mi Calm Calm - N/A   Partly Cloudy
2:15 AM 32.0 °F 28.7 °F 15.8 °F 51% 30.04 in 10.0 mi West 3.5 mph - N/A   Scattered Clouds
2:35 AM 32.0 °F - 15.8 °F 51% 30.04 in 10.0 mi Calm Calm - N/A   Mostly Cloudy
2:55 AM 32.0 °F - 17.6 °F 55% 30.04 in 10.0 mi Calm Calm - N/A   Mostly Cloudy
3:15 AM 32.0 °F - 15.8 °F 51% 30.04 in 10.0 mi Calm Calm - N/A   Scattered Clouds
3:35 AM 32.0 °F - 17.6 °F 55% 30.04 in 10.0 mi Calm Calm - N/A   Clear
3:55 AM 30.2 °F 25.4 °F 15.8 °F 55% 30.04 in 10.0 mi West 4.6 mph - N/A   Clear
4:15 AM 30.2 °F - 15.8 °F 55% 30.04 in 10.0 mi Calm Calm - N/A   Clear
4:35 AM 30.2 °F 24.3 °F 15.8 °F 55% 30.05 in 10.0 mi West 5.8 mph - N/A   Clear
4:55 AM 30.2 °F 24.3 °F 14.0 °F 51% 30.05 in 10.0 mi West 5.8 mph - N/A   Clear
5:15 AM 30.2 °F 26.7 °F 14.0 °F 51% 30.06 in 10.0 mi WNW 3.5 mph - N/A   Clear
5:35 AM 28.4 °F - 14.0 °F 55% 30.07 in 10.0 mi Calm Calm - N/A   Clear
5:55 AM 28.4 °F 20.4 °F 15.8 °F 59% 30.07 in 10.0 mi West 8.1 mph - N/A   Clear
6:15 AM 28.4 °F 21.2 °F 14.0 °F 55% 30.09 in 10.0 mi West 6.9 mph - N/A   Clear
6:35 AM 28.4 °F 22.2 °F 15.8 °F 59% 30.10 in 10.0 mi West 5.8 mph - N/A   Clear
6:55 AM 28.4 °F 21.2 °F 14.0 °F 55% 30.11 in 10.0 mi West 6.9 mph - N/A   Clear
7:15 AM 28.4 °F 22.2 °F 15.8 °F 59% 30.12 in 10.0 mi WSW 5.8 mph - N/A   Scattered Clouds
7:35 AM 28.4 °F 20.4 °F 15.8 °F 59% 30.13 in 10.0 mi WSW 8.1 mph - N/A   Partly Cloudy
7:55 AM 28.4 °F 21.2 °F 15.8 °F 59% 30.14 in 10.0 mi SW 6.9 mph - N/A   Partly Cloudy
8:15 AM 28.4 °F 20.4 °F 15.8 °F 59% 30.15 in 10.0 mi WSW 8.1 mph - N/A   Partly Cloudy
8:35 AM 30.2 °F 21.3 °F 14.0 °F 51% 30.15 in 10.0 mi WSW 10.4 mph - N/A   Clear
8:55 AM 30.2 °F 23.4 °F 14.0 °F 51% 30.16 in 10.0 mi WSW 6.9 mph - N/A   Clear
9:15 AM 30.2 °F 21.3 °F 14.0 °F 51% 30.16 in - WSW 10.4 mph - N/A   Clear
9:35 AM 30.2 °F 19.8 °F 14.0 °F 51% 30.16 in - WSW 13.8 mph 20.7 mph N/A   Clear
9:55 AM 32.0 °F 25.6 °F 10.4 °F 41% 30.16 in 10.0 mi West 6.9 mph - N/A   Clear
10:15 AM 32.0 °F 23.0 °F 12.2 °F 44% 30.17 in 10.0 mi West 11.5 mph 90.9 mph N/A   Light Drizzle
10:35 AM 32.0 °F 22.5 °F 12.2 °F 44% 30.17 in 10.0 mi WNW 12.7 mph 18.4 mph N/A   Clear
10:55 AM 32.0 °F 23.6 °F 12.2 °F 44% 30.18 in 10.0 mi West 10.4 mph 18.4 mph N/A   Clear
11:15 AM 32.0 °F 22.1 °F 12.2 °F 44% 30.18 in 10.0 mi West 13.8 mph 17.3 mph N/A   Clear
11:35 AM 32.0 °F 22.1 °F 12.2 °F 44% 30.18 in 10.0 mi WSW 13.8 mph - N/A   Clear
11:55 AM 33.8 °F 25.3 °F 12.2 °F 41% 30.18 in 10.0 mi West 11.5 mph 21.9 mph N/A   Clear
12:15 PM 33.8 °F 27.0 °F 10.4 °F 38% 30.17 in 10.0 mi WNW 8.1 mph 18.4 mph N/A   Clear
12:35 PM 33.8 °F 26.4 °F 12.2 °F 41% 30.17 in 10.0 mi NNW 9.2 mph 18.4 mph N/A   Clear
12:55 PM 35.6 °F 27.1 °F 12.2 °F 38% 30.16 in 10.0 mi WSW 12.7 mph 20.7 mph N/A   Clear
1:15 PM 35.6 °F 28.6 °F 10.4 °F 35% 30.16 in 10.0 mi WSW 9.2 mph 19.6 mph N/A   Clear
1:35 PM 35.6 °F 27.5 °F 12.2 °F 38% 30.15 in 10.0 mi NNW 11.5 mph 19.6 mph N/A   Clear
1:55 PM 35.6 °F 28.6 °F 12.2 °F 38% 30.14 in 10.0 mi West 9.2 mph 18.4 mph N/A   Partly Cloudy
2:15 PM 37.4 °F - 10.4 °F 33% 30.14 in 10.0 mi Calm Calm - N/A   Clear
2:35 PM 37.4 °F 28.5 °F 12.2 °F 36% 30.13 in 10.0 mi WSW 15.0 mph 19.6 mph N/A   Clear
2:55 PM 37.4 °F 32.8 °F 12.2 °F 36% 30.13 in 10.0 mi WNW 5.8 mph 26.5 mph N/A   Clear
3:15 PM 39.2 °F 32.0 °F 12.2 °F 33% 30.12 in 10.0 mi West 11.5 mph 18.4 mph N/A   Clear
3:35 PM 37.4 °F 34.9 °F 12.2 °F 36% 30.11 in 10.0 mi NW 3.5 mph 17.3 mph N/A   Clear
3:55 PM 39.2 °F 31.2 °F 12.2 °F 33% 30.11 in 10.0 mi WSW 13.8 mph 21.9 mph N/A   Clear
4:15 PM 39.2 °F 32.0 °F 8.6 °F 28% 30.11 in 10.0 mi West 11.5 mph 16.1 mph N/A   Clear
4:35 PM 39.2 °F 31.6 °F 8.6 °F 28% 30.11 in 10.0 mi WNW 12.7 mph 18.4 mph N/A   Clear
4:55 PM 39.2 °F 32.5 °F 8.6 °F 28% 30.11 in 10.0 mi West 10.4 mph 18.4 mph N/A   Clear
5:15 PM 39.2 °F 33.0 °F 8.6 °F 28% 30.11 in 10.0 mi West 9.2 mph 19.6 mph N/A   Clear
5:35 PM 39.2 °F 34.2 °F 10.4 °F 31% 30.11 in 10.0 mi SW 6.9 mph 19.6 mph N/A   Clear
5:55 PM 41.0 °F 39.0 °F 10.4 °F 29% 30.11 in 10.0 mi West 3.5 mph - N/A   Clear
6:15 PM 39.2 °F 35.9 °F 10.4 °F 31% 30.12 in 10.0 mi West 4.6 mph 18.4 mph N/A   Partly Cloudy
6:35 PM 39.2 °F 33.0 °F 10.4 °F 31% 30.12 in 10.0 mi West 9.2 mph - N/A   Clear
6:55 PM 39.2 °F 34.2 °F 10.4 °F 31% 30.13 in 10.0 mi West 6.9 mph 18.4 mph N/A   Partly Cloudy
7:15 PM 37.4 °F 32.8 °F 8.6 °F 30% 30.13 in 10.0 mi WNW 5.8 mph 18.4 mph N/A   Partly Cloudy
7:35 PM 37.4 °F 33.8 °F 10.4 °F 33% 30.14 in 10.0 mi WNW 4.6 mph - N/A   Clear
7:55 PM 37.4 °F 34.9 °F 10.4 °F 33% 30.14 in 10.0 mi NW 3.5 mph - N/A   Clear
8:15 PM 35.6 °F - 10.4 °F 35% 30.14 in 10.0 mi Calm Calm - N/A   Clear
8:35 PM 35.6 °F - 10.4 °F 35% 30.14 in 10.0 mi Calm Calm - N/A   Clear
8:55 PM 35.6 °F - 10.4 °F 35% 30.15 in 10.0 mi Calm Calm - N/A   Clear
9:15 PM 35.6 °F - 10.4 °F 35% 30.16 in 10.0 mi Calm Calm - N/A   Clear
9:35 PM 35.6 °F - 10.4 °F 35% 30.16 in 10.0 mi Calm Calm - N/A   Clear
9:55 PM 33.8 °F - 12.2 °F 41% 30.17 in 10.0 mi Calm Calm - N/A   Partly Cloudy
10:15 PM 33.8 °F - 12.2 °F 41% 30.17 in 10.0 mi Calm Calm - N/A   Partly Cloudy
10:35 PM 32.0 °F - 14.0 °F 48% 30.17 in 10.0 mi Calm Calm - N/A   Partly Cloudy
10:55 PM 33.8 °F - 12.2 °F 41% 30.17 in 10.0 mi Calm Calm - N/A   Mostly Cloudy
11:15 PM 33.8 °F - 12.2 °F 41% 30.18 in 10.0 mi Calm Calm - N/A   Mostly Cloudy
11:35 PM 32.0 °F - 12.2 °F 44% 30.18 in 10.0 mi Calm Calm - N/A   Mostly Cloudy
11:55 PM 32.0 °F 28.7 °F 14.0 °F 48% 30.18 in 10.0 mi NW 3.5 mph - N/A   Partly Cloudy